Tomahawk, WI

10:54 AM CDT on May 23, 2017 (GMT -0500)
Tomahawk

Weather History for KTKV - October, 2011

Change the Weather History Date:

Sunday, October 30, 2011

  Actual Average (KRHI) Record (KRHI)
Temperature  
Mean Temperature 33 °F -  
Max Temperature 42 °F 49 °F 79 °F (1950)
Min Temperature 24 °F 29 °F 2 °F (1925)
Degree Days  
Heating Degree Days 32    
Moisture  
Dew Point 30 °F    
Average Humidity 83    
Maximum Humidity 96    
Minimum Humidity 61    
Precipitation  
Precipitation 0.06 in - - ()
Sea Level Pressure  
Sea Level Pressure 29.92 in    
Wind  
Wind Speed 2 mph (ESE)    
Max Wind Speed 8 mph    
Max Gust Speed 20 mph    
Visibility 8 miles    
Events Rain    
Averages and records for this station are not official NWS values.
T = Trace of Precipitation, MM = Missing Value Source: NWS Daily Summary

Daily Weather History Graph

Daily Weather History Graph

Search for Another Location

Airport or City:

Trip Planner

Search our weather history database for the weather conditions in past years. The results will help you decide how hot, cold, wet, or windy it might be!

Date:

Astronomy

Oct. 30, 2011 Rise Set
Actual Time 7:35 AM CDT 5:49 PM CDT
Civil Twilight 7:04 AM CDT 6:20 PM CDT
Nautical Twilight 6:29 AM CDT 6:55 PM CDT
Astronomical Twilight 5:55 AM CDT 7:29 PM CDT
Moon 12:03 PM CDT (10/30) 9:10 PM CDT (10/30)
Length of Visible Light 11h 15m
Length of Day
10h 14m
Waxing Crescent, 20% of the Moon is Illuminated
Oct 30
Waxing Crescent
Nov 2
First Quarter
Nov 10
Full
Nov 18
Last Quarter
Nov 25
New

Hourly Weather History & Observations

Time (CDT) Temp. Windchill Dew Point Humidity Pressure Visibility Wind Dir Wind Speed Gust Speed Precip Events Conditions
12:15 AM 24.1 °F - 21.6 °F 90% 30.03 in 10.0 mi Calm Calm - N/A   Clear
12:35 AM 24.1 °F - 21.6 °F 90% 30.03 in 10.0 mi Calm Calm - N/A   Clear
12:55 AM 24.3 °F - 22.1 °F 91% 30.03 in 10.0 mi Calm Calm - N/A   Clear
1:15 AM 25.9 °F - 23.9 °F 92% 30.02 in 10.0 mi Calm Calm - N/A   Clear
1:35 AM 26.2 °F - 23.7 °F 90% 30.02 in 10.0 mi Calm Calm - N/A   Clear
1:55 AM 25.5 °F - 23.2 °F 91% 30.02 in 10.0 mi Calm Calm - N/A   Clear
2:15 AM 27.5 °F - 24.4 °F 88% 30.02 in 10.0 mi Calm Calm - N/A   Clear
2:35 AM 28.2 °F - 24.6 °F 86% 30.01 in 10.0 mi Calm Calm - N/A   Clear
2:55 AM 28.4 °F - 24.8 °F 86% 30.00 in 10.0 mi Calm Calm - N/A   Clear
3:15 AM 28.8 °F - 24.8 °F 85% 30.00 in 10.0 mi Calm Calm - N/A   Clear
3:35 AM 28.9 °F 25.2 °F 24.6 °F 84% 29.99 in 10.0 mi ESE 3.5 mph - N/A   Scattered Clouds
3:55 AM 29.1 °F - 24.6 °F 83% 29.98 in 10.0 mi Calm Calm - N/A   Clear
4:15 AM 29.1 °F - 24.4 °F 83% 29.98 in 10.0 mi Calm Calm - N/A   Scattered Clouds
4:35 AM 29.3 °F - 24.6 °F 83% 29.98 in 10.0 mi Calm Calm - N/A   Mostly Cloudy
4:55 AM 30.4 °F 26.9 °F 24.6 °F 79% 29.98 in 10.0 mi ESE 3.5 mph - N/A   Mostly Cloudy
5:15 AM 31.1 °F - 25.0 °F 78% 29.97 in 10.0 mi Calm Calm - N/A   Mostly Cloudy
5:35 AM 31.8 °F - 25.0 °F 76% 29.97 in 10.0 mi Calm Calm - N/A   Overcast
5:55 AM 32.0 °F - 24.8 °F 75% 29.97 in 10.0 mi Calm Calm - N/A   Mostly Cloudy
6:15 AM 32.0 °F 28.7 °F 24.6 °F 74% 29.96 in 10.0 mi ESE 3.5 mph - N/A   Mostly Cloudy
6:35 AM 32.2 °F 28.9 °F 24.8 °F 74% 29.96 in 10.0 mi SE 3.5 mph - N/A   Overcast
6:55 AM 32.9 °F 29.8 °F 24.4 °F 71% 29.96 in 10.0 mi SE 3.5 mph - N/A   Overcast
7:15 AM 33.6 °F 29.4 °F 24.1 °F 68% 29.96 in 10.0 mi SE 4.6 mph - N/A   Overcast
7:35 AM 34.5 °F 31.6 °F 23.9 °F 65% 29.95 in 10.0 mi SE 3.5 mph - N/A   Overcast
8:15 AM 34.3 °F 30.2 °F 24.6 °F 68% 29.95 in 10.0 mi SE 4.6 mph - N/A   Overcast
8:35 AM 34.7 °F 30.6 °F 25.0 °F 68% 29.95 in 7.0 mi SE 4.6 mph - N/A Rain Light Rain
9:15 AM 35.1 °F 32.2 °F 27.9 °F 75% 29.95 in 7.0 mi SE 3.5 mph - N/A   Drizzle
9:35 AM 34.9 °F 29.9 °F 30.0 °F 82% 29.94 in 7.0 mi East 5.8 mph - N/A Rain Light Rain
9:55 AM 34.9 °F 29.9 °F 31.1 °F 86% 29.94 in 10.0 mi ESE 5.8 mph - N/A Rain Light Rain
10:15 AM 35.1 °F 29.3 °F 31.8 °F 88% 29.93 in 10.0 mi ESE 6.9 mph - N/A   Light Drizzle
10:35 AM 35.8 °F 30.9 °F 32.4 °F 87% 29.92 in 10.0 mi ESE 5.8 mph - N/A   Overcast
10:55 AM 37.0 °F 31.6 °F 33.1 °F 86% 29.91 in 10.0 mi East 6.9 mph - N/A   Overcast
11:15 AM 37.9 °F 32.7 °F 33.1 °F 83% 29.91 in 10.0 mi SE 6.9 mph - N/A   Overcast
11:35 AM 39.0 °F 35.7 °F 33.1 °F 79% 29.90 in 10.0 mi ESE 4.6 mph - N/A   Overcast
11:55 AM 39.6 °F 35.4 °F 32.9 °F 77% 29.89 in 10.0 mi ESE 5.8 mph - N/A   Overcast
12:35 PM 40.3 °F 34.9 °F 32.5 °F 74% 29.88 in 10.0 mi SE 8.1 mph 19.6 mph N/A Rain Light Rain
12:55 PM 39.2 °F 35.9 °F 33.4 °F 80% 29.86 in 10.0 mi East 4.6 mph - 0.01 in Rain Light Rain
1:15 PM 40.5 °F 36.5 °F 32.7 °F 74% 29.85 in 10.0 mi ESE 5.8 mph - N/A   Overcast
1:35 PM 41.4 °F 36.8 °F 31.3 °F 67% 29.84 in 10.0 mi SE 6.9 mph - N/A   Light Drizzle
1:55 PM 41.7 °F 39.8 °F 30.2 °F 64% 29.84 in 10.0 mi SE 3.5 mph - N/A   Overcast
2:15 PM 42.1 °F 37.1 °F 29.8 °F 62% 29.83 in 10.0 mi SE 8.1 mph - N/A   Overcast
2:35 PM 42.3 °F 38.6 °F 29.7 °F 61% 29.83 in 10.0 mi SE 5.8 mph 16.1 mph N/A   Overcast
2:55 PM 41.9 °F 37.5 °F 30.9 °F 65% 29.83 in 10.0 mi ESE 6.9 mph - N/A   Light Drizzle
3:35 PM 39.4 °F 37.2 °F 34.3 °F 82% 29.83 in 5.0 mi SE 3.5 mph - N/A   Drizzle
4:15 PM 38.8 °F - 36.0 °F 89% 29.83 in 5.0 mi Calm Calm - N/A   Drizzle
4:35 PM 38.7 °F - 36.1 °F 91% 29.83 in 4.0 mi Calm Calm - 0.02 in   Drizzle
4:55 PM 38.5 °F - 36.1 °F 91% 29.83 in 3.0 mi Calm Calm - 0.02 in   Drizzle
5:15 PM 37.9 °F - 35.6 °F 91% 29.83 in 3.0 mi Calm Calm - 0.01 in   Drizzle
5:35 PM 37.6 °F - 35.6 °F 93% 29.83 in 4.0 mi Calm Calm - 0.01 in Rain Light Rain
6:15 PM 37.4 °F - 35.6 °F 93% 29.84 in 4.0 mi Calm Calm - N/A   Drizzle
6:35 PM 37.2 °F - 35.6 °F 94% 29.84 in 2.0 mi Calm Calm - N/A   Drizzle
6:55 PM 37.0 °F - 35.6 °F 95% 29.85 in 2.0 mi Calm Calm - N/A   Drizzle
7:35 PM 37.0 °F - 35.8 °F 95% 29.85 in 2.5 mi Calm Calm - 0.02 in   Drizzle
7:55 PM 36.7 °F - 35.6 °F 96% 29.85 in 1.2 mi Calm Calm - 0.02 in   Drizzle
8:15 PM 36.7 °F - 35.6 °F 96% 29.85 in 2.5 mi Calm Calm - N/A   Light Drizzle
8:35 PM 36.9 °F - 35.6 °F 95% 29.85 in 2.0 mi Calm Calm - N/A   Light Drizzle
8:55 PM 36.7 °F - 35.4 °F 95% 29.85 in 1.5 mi Calm Calm - N/A   Light Drizzle
9:15 PM 36.5 °F - 35.1 °F 95% 29.85 in 1.5 mi Calm Calm - N/A   Light Drizzle
9:35 PM 36.5 °F - 35.2 °F 95% 29.85 in 1.2 mi Calm Calm - N/A   Overcast
9:55 PM 36.5 °F - 35.1 °F 95% 29.85 in 1.5 mi Calm Calm - N/A   Overcast
10:15 PM 36.5 °F - 35.2 °F 95% 29.86 in 1.8 mi Calm Calm - N/A   Overcast
10:35 PM 36.5 °F - 35.6 °F 97% 29.86 in 2.0 mi Calm Calm - N/A   Overcast
10:55 PM 36.5 °F - 35.6 °F 97% 29.86 in 2.0 mi Calm Calm - N/A   Overcast
11:15 PM 36.7 °F - 35.6 °F 96% 29.86 in 2.0 mi Calm Calm - N/A   Overcast
11:35 PM 36.7 °F - 35.6 °F 96% 29.86 in 2.0 mi Calm Calm - N/A   Overcast
11:55 PM 36.7 °F - 35.6 °F 96% 29.86 in 1.8 mi Calm Calm - N/A   Overcast